[[{"header":{"parameterUnit":"m.s-1","parameterCategory":1,"la1":30.2992,"la2":30.254,"lo1":-89.0895,"lo2":-89.0443,"dy":0.0025,"dx":0.0025,"nx":19,"ny":19,"refTime":"2026-04-03T03:00:00:Z","depth":0,"parameterNumber":2,"parameterNumberName":"U-component_of_WINDS"},"data":[0,0,0,-4.04,-4.0403,-4.0511,-4.0511,-4.0659,-4.0661,0,0,0,0,0,0,0,0,0,0,0,-4.0375,-4.0376,-4.04,-4.0403,-4.0511,-4.0511,-4.0659,-4.0661,0,0,0,0,0,0,0,0,0,0,0,-4.0374,-4.0376,-4.0377,-4.0403,-4.0511,-4.0511,-4.0659,-4.0574,0,0,0,0,0,0,0,0,0,0,-4.0467,-4.045,-4.0375,-4.0377,-4.0404,-4.0511,-4.0511,-4.0569,-4.0579,-4.0615,0,-4.0649,0,-4.0658,-4.0672,-4.0672,0,0,0,-4.0398,-4.0442,-4.0465,-4.0377,-4.0405,-4.051,-4.0461,-4.0575,-4.0586,-4.0628,-4.0651,-4.0656,-4.066,-4.0673,-4.0673,-4.0899,-4.09,0,0,-4.0392,-4.0397,-4.0458,-4.0473,-4.0457,-4.0457,-4.0464,-4.0581,-4.0607,-4.0652,-4.066,-4.0662,-4.0674,-4.0675,-4.0898,-4.09,0,0,0,-4.0378,-4.0393,-4.0414,-4.0467,-4.0486,-4.0461,-4.0468,-4.0601,-4.0608,-4.0661,-4.0664,-4.0675,-4.0676,-4.0897,-4.0899,-4.0967,0,0,0,-4.0375,-4.0385,-4.0411,-4.0416,-4.0484,-4.0545,-4.0486,-4.0599,-4.0612,-4.0663,-4.0675,-4.0678,-4.0895,-4.0898,-4.0962,-4.0997,0,0,0,-4.0366,-4.0384,-4.0402,-4.0416,-4.0463,-4.0543,-4.0556,-4.0602,-4.0615,-4.0672,-4.0678,-4.0894,-4.0897,-4.0957,-4.099,-4.1058,0,0,0,-4.0357,-4.0461,-4.0403,-4.0521,-4.0462,-4.0585,-4.0555,-4.0646,-4.0704,-4.0675,-4.0895,-4.0898,-4.0956,-4.0986,-4.1053,-4.1114,-4.1141,0,0,-4.0491,-4.0477,-4.0546,-4.0498,-4.0632,-4.0568,-4.0713,-4.076,-4.0761,-4.0853,-4.0858,-4.0963,-4.099,-4.1057,-4.1291,-4.1312,0,0,0,-4.059,-4.0639,-4.0674,-4.0729,-4.0769,-4.0806,-4.0831,-4.0849,-4.0927,-4.0809,-4.1007,-4.1022,-4.1061,-4.109,-4.1108,-4.1141,-4.0912,-4.0912,-4.0912,-4.0785,-4.0781,-4.0894,-4.0904,-4.0959,-4.0984,-4.1028,-4.1056,-4.1036,-4.1083,-4.1109,-4.1252,-4.1286,-4.13,-4.1334,-4.1143,-4.1144,-4.1144,-4.1144,-4.0979,-4.1047,-4.102,-4.112,-4.1115,-4.1199,-4.1229,-4.1212,-4.1289,-4.1231,-4.1266,-4.1201,-4.1323,-4.1353,-4.1149,-4.1148,-4.1147,-4.1147,-4.1147,-4.1105,-4.1137,-4.1158,-4.1239,-4.1302,-4.1308,-4.1384,-4.1378,-4.1372,-4.1407,-4.1434,-4.1432,-4.1429,-4.142,-4.1421,-4.1421,-4.1422,-4.1422,-4.1423,-4.1225,-4.1247,-4.1312,-4.1364,-4.14,-4.1446,-4.1475,-4.1509,-4.1546,-4.1535,-4.1535,-4.151,-4.1336,-4.1292,-4.143,-4.1429,-4.1428,-4.1427,-4.1427,-4.142,-4.1376,-4.1475,-4.1511,-4.1573,-4.1636,-4.1628,-4.17,-4.1728,-4.1765,-4.1734,-4.1607,-4.1592,-4.1578,-4.1541,-4.1735,-4.1735,-4.1735,-4.1735,-4.1525,-4.1518,-4.1618,-4.1676,-4.1732,-4.1736,-4.1849,-4.1873,-4.1891,-4.1909,-4.188,-4.1831,-4.1817,-4.181,-4.1791,-4.1756,-4.2001,-4.2002,-4.2002,-4.1644,-4.1642,-4.1739,-4.1757,-4.1805,-4.1847,-4.1953,-4.202,-4.2032,-4.2012,-4.1922,-4.1911,-4.1832,-4.1806,-4.1782,-4.1752,-4.1688,0,0]},{"header":{"parameterUnit":"m.s-1","parameterCategory":1,"la1":30.2992,"la2":30.254,"lo1":-89.0895,"lo2":-89.0443,"dy":0.0025,"dx":0.0025,"nx":19,"ny":19,"refTime":"2026-04-03T03:00:00:Z","depth":0,"parameterNumber":3,"parameterNumberName":"V-component_of_WINDS"},"data":[0,0,0,3.0545,3.0546,3.0601,3.0602,3.0679,3.0679,0,0,0,0,0,0,0,0,0,0,0,3.0532,3.0533,3.0544,3.0546,3.0601,3.0602,3.0679,3.0679,0,0,0,0,0,0,0,0,0,0,0,3.0532,3.0533,3.0534,3.0546,3.0601,3.0602,3.0678,3.0634,0,0,0,0,0,0,0,0,0,0,3.0579,3.0572,3.0533,3.0534,3.0547,3.0601,3.0602,3.0632,3.0637,3.0656,0,3.0675,0,3.0679,3.0685,3.0685,0,0,0,3.0542,3.0568,3.0579,3.0534,3.0547,3.0601,3.0575,3.0635,3.064,3.0663,3.0676,3.0679,3.068,3.0686,3.0686,3.0814,3.0815,0,0,3.0539,3.0544,3.0575,3.0583,3.0576,3.0574,3.0577,3.0638,3.0652,3.0677,3.0681,3.0682,3.0686,3.0687,3.0813,3.0814,0,0,0,3.0533,3.0542,3.0552,3.058,3.059,3.0575,3.0579,3.065,3.0653,3.0682,3.0682,3.0687,3.0688,3.0812,3.0814,3.0857,0,0,0,3.0531,3.0538,3.0551,3.0554,3.0589,3.0621,3.059,3.0648,3.0655,3.0682,3.0687,3.0689,3.0812,3.0813,3.0854,3.0877,0,0,0,3.0527,3.0538,3.0548,3.0554,3.0579,3.0619,3.0626,3.065,3.0656,3.0685,3.0689,3.0811,3.0813,3.0852,3.0873,3.0914,0,0,0,3.0524,3.0584,3.0548,3.0615,3.0578,3.0647,3.0625,3.0675,3.0706,3.0687,3.0812,3.0813,3.0851,3.087,3.0911,3.0949,3.0966,0,0,3.0602,3.0593,3.0632,3.0602,3.0679,3.0638,3.072,3.0742,3.074,3.0789,3.0792,3.0855,3.0872,3.0913,3.1055,3.1068,0,0,0,3.0659,3.0687,3.0706,3.0737,3.0757,3.0776,3.0786,3.0795,3.0837,3.0766,3.0881,3.0891,3.0914,3.0933,3.0944,3.0964,3.0822,3.0822,3.0822,3.0774,3.0771,3.0836,3.0839,3.0869,3.088,3.0904,3.0918,3.0902,3.093,3.0945,3.1032,3.1053,3.1062,3.1083,3.0964,3.0964,3.0965,3.0965,3.0889,3.0929,3.0911,3.0968,3.0963,3.101,3.1024,3.1013,3.1056,3.102,3.104,3.1001,3.1076,3.1095,3.0968,3.0967,3.0967,3.0967,3.0966,3.0965,3.0984,3.0995,3.1041,3.1077,3.1078,3.1121,3.1115,3.1109,3.1129,3.1145,3.1144,3.1144,3.1137,3.1138,3.1138,3.1138,3.1138,3.1139,3.104,3.1051,3.1089,3.1118,3.1139,3.1164,3.1178,3.1198,3.1218,3.1209,3.1209,3.1193,3.1084,3.1058,3.1143,3.1142,3.1142,3.1141,3.1141,3.1158,3.1131,3.119,3.1211,3.1246,3.1283,3.1275,3.1316,3.1331,3.1353,3.1333,3.1254,3.1243,3.1234,3.1213,3.1333,3.1333,3.1333,3.1333,3.1223,3.1218,3.1279,3.1313,3.1345,3.1345,3.1413,3.1425,3.1433,3.1442,3.1424,3.1394,3.1385,3.138,3.1368,3.1348,3.15,3.15,3.15,3.1296,3.1295,3.1354,3.1363,3.139,3.1414,3.1478,3.1518,3.1521,3.1507,3.145,3.1443,3.1394,3.1379,3.1362,3.1344,3.1306,0,0]}]]